Regional Weather Roundup
Issued by NWS Cleveland, OH

Home | Current Version | Previous Version | Text Only | Print | Product List | Glossary Off
Versions: 1 2 3 4 5 6 7 8 9 10 11 12 13 14 15 16 17 18 19 20 21 22 23 24 25 26 27 28 29 30 31 32 33 34 35 36 37 38 39 40 41 42 43 44 45 46 47 48 49 50

000
ASUS41 KCLE 010300
RWRCLE
OHIO REGIONAL WEATHER ROUNDUP
NATIONAL WEATHER SERVICE WILMINGTON, OH
1100 PM EDT TUE SEP 30 2014

NOTE: "FAIR" INDICATES FEW OR NO CLOUDS BELOW 12,000 FEET WITH NO
SIGNIFICANT WEATHER AND/OR OBSTRUCTIONS TO VISIBILITY.

OHZ001>008-015>018-024>027-034-035-043-044-010400-
   NORTHWEST OHIO

CITY           SKY/WX    TMP DP  RH WIND       PRES   REMARKS
DEFIANCE       PTCLDY    54  49  83 E3        30.01S
FINDLAY        MOCLDY    55  49  80 N7        29.99S
TOLEDO EXPRESS MOCLDY    52  49  89 N5        30.01S
TOLEDO METCALF MOCLDY    54  48  80 N6        30.02S
LIMA           MOCLDY    55  48  77 CALM      30.00S
$$

OHZ009>014-019>023-028>033-038-089-010400-
   NORTHEAST OHIO

CITY           SKY/WX    TMP DP  RH WIND       PRES   REMARKS
CLE-HOPKINS    MOCLDY    57  51  80 N5        30.00S
CLE-LAKEFRONT  PTCLDY    59  51  75 N5        29.98S
CUY CO. ARPT   PTCLDY    59  55  88 CALM      29.99S
LORAIN-ELYRIA  CLOUDY    60  52  74 CALM      30.00S
ASHTABULA      FOG       49  49 100 CALM      30.00R VSB 1
AKRON-CANTON   PTCLDY    54  50  86 N7        29.98S
WOOSTER        NOT AVBL
MANSFIELD      CLOUDY    54  52  93 N3        29.99S
YOUNGSTOWN     MOCLDY    56  54  93 N7        29.98S
$$

OHZ042-051>053-060>062-070>072-077>081-010400-
  SOUTHWEST OHIO

CITY           SKY/WX    TMP DP  RH WIND       PRES   REMARKS
CINC-COVINGTON PTCLDY    61  52  72 NE12      29.97R
CINC-LUNKEN    CLEAR     57  51  80 NE9       29.99R
HAMILTON       CLEAR     54  49  83 NE5       30.00R
DAYTON         NOT AVBL
WRIGHT-PAT AFB CLEAR     49  46  88 CALM      30.00R
DAYTON GENERAL CLEAR     50  46  86 NE7       29.99R
WILMINGTON     CLEAR     48  45  89 NE6       29.99R
$$

OHZ036-037-039>041-045>050-054>059-063>069-073>076-082>088-010400-
  CENTRAL AND SOUTHEAST OHIO

CITY           SKY/WX    TMP DP  RH WIND       PRES   REMARKS
COLUMBUS       PTCLDY    52  49  89 NE3       29.97S
OSU AIRPORT    CLEAR     51  48  89 N6        29.98S
BOLTON FIELD   NOT AVBL
RICKENBACK AFB NOT AVBL
NEWARK         MOCLDY    55  51  86 NE3       29.98R
MARION         CLEAR     52  49  89 N5        29.99S
LANCASTER      CLOUDY    50  48  93 CALM      29.98S
ZANESVILLE     CLOUDY    56  52  86 N5        29.98R
NEW PHILLY     MOCLDY    54  52  93 NW3       29.99R
$$


USA.gov is the U.S. government's official web portal to all federal, state and local government web resources and services.